TimeEST,TemperatureF,Dew PointF,Humidity,Sea Level PressureIn,VisibilityMPH,Wind Direction,Wind SpeedMPH,Gust SpeedMPH,PrecipitationIn,Events,Conditions,WindDirDegrees,DateUTC
12:53 AM,24.1,15.1,69,30.38,10.0,ENE,6.9,-,N/A,,Overcast,70,2013-12-09 05:53:00
1:53 AM,25.0,16.0,69,30.35,10.0,ENE,9.2,-,N/A,,Overcast,60,2013-12-09 06:53:00
2:53 AM,25.0,16.0,69,30.30,10.0,ENE,9.2,-,N/A,,Overcast,60,2013-12-09 07:53:00
3:53 AM,25.0,16.0,69,30.24,10.0,East,8.1,-,N/A,,Overcast,80,2013-12-09 08:53:00
4:49 AM,24.8,17.6,74,30.18,2.5,ENE,10.4,-,0.00,Snow,Light Snow,60,2013-12-09 09:49:00
4:53 AM,24.1,18.0,77,30.20,2.0,ENE,10.4,-,0.00,Snow,Light Snow,70,2013-12-09 09:53:00
5:00 AM,24.8,17.6,74,30.17,1.8,ENE,10.4,-,0.00,Snow,Light Snow,60,2013-12-09 10:00:00
5:05 AM,24.8,17.6,74,30.16,3.0,ENE,10.4,-,0.00,Snow,Light Snow,60,2013-12-09 10:05:00
5:53 AM,24.1,19.0,81,30.14,2.5,ENE,11.5,-,0.00,Snow,Light Snow,70,2013-12-09 10:53:00
6:02 AM,24.8,19.4,80,30.11,2.0,ENE,10.4,-,0.00,Snow,Light Snow,70,2013-12-09 11:02:00
6:15 AM,24.8,19.4,80,30.10,1.5,ENE,9.2,-,0.00,Snow,Light Snow,70,2013-12-09 11:15:00
6:26 AM,24.8,19.4,80,30.09,2.5,ENE,11.5,-,0.00,Snow,Light Snow,70,2013-12-09 11:26:00
6:37 AM,24.8,19.4,80,30.08,1.5,ENE,10.4,-,0.00,Snow,Light Snow,60,2013-12-09 11:37:00
6:49 AM,24.8,19.4,80,30.07,2.5,ENE,12.7,-,0.00,Snow,Light Snow,60,2013-12-09 11:49:00
6:53 AM,24.1,19.9,84,30.09,2.0,ENE,12.7,-,0.00,Snow,Light Snow,60,2013-12-09 11:53:00
7:04 AM,24.8,21.2,86,30.05,1.8,ENE,11.5,-,0.00,Snow,Light Snow,70,2013-12-09 12:04:00
7:50 AM,24.8,21.2,86,30.01,2.5,ENE,9.2,-,0.01,Snow,Light Snow,70,2013-12-09 12:50:00
7:53 AM,24.1,21.0,88,30.03,2.5,ENE,9.2,-,0.01,Snow,Light Snow,70,2013-12-09 12:53:00
8:09 AM,24.8,21.2,86,30.00,1.5,East,6.9,-,0.00,Snow,Light Snow,80,2013-12-09 13:09:00
8:53 AM,25.0,21.9,88,29.98,1.5,ENE,9.2,-,0.00,Snow,Light Snow,70,2013-12-09 13:53:00
9:15 AM,24.8,21.2,86,29.96,2.0,ENE,6.9,-,0.00,Snow,Light Snow,70,2013-12-09 14:15:00
9:23 AM,26.6,23.0,86,29.96,1.2,ENE,8.1,-,0.00,Snow,Light Snow,60,2013-12-09 14:23:00
9:36 AM,26.6,23.0,86,29.95,0.8,ENE,8.1,-,0.00,Snow,Light Snow,60,2013-12-09 14:36:00
9:53 AM,26.1,23.0,88,29.97,0.5,ENE,5.8,-,0.01,Fog-Snow,Snow,70,2013-12-09 14:53:00
10:22 AM,26.6,24.8,93,29.93,0.5,ENE,6.9,-,0.01,Fog-Snow,Snow,60,2013-12-09 15:22:00
10:39 AM,26.6,24.8,93,29.92,1.0,East,4.6,-,0.02,Snow,Light Snow,90,2013-12-09 15:39:00
10:53 AM,27.0,25.0,92,29.92,0.8,ENE,4.6,-,0.02,Snow,Light Snow,70,2013-12-09 15:53:00
11:02 AM,28.4,24.8,86,29.90,0.8,ENE,4.6,-,0.00,Snow,Light Snow,60,2013-12-09 16:02:00
11:19 AM,28.4,26.6,93,29.88,1.0,East,3.5,-,0.01,Snow,Light Snow,80,2013-12-09 16:19:00
11:42 AM,28.4,26.6,93,29.87,1.0,East,4.6,-,0.02,Snow,Light Snow,80,2013-12-09 16:42:00
11:53 AM,28.9,27.0,92,29.88,1.2,ENE,3.5,-,0.02,Snow,Light Snow,70,2013-12-09 16:53:00
12:29 PM,30.2,28.4,93,29.83,1.0,ENE,3.5,-,0.01,Snow,Light Snow,60,2013-12-09 17:29:00
12:48 PM,30.2,28.4,93,29.82,1.2,NE,3.5,-,0.01,Snow,Light Snow,50,2013-12-09 17:48:00
12:53 PM,30.0,28.0,92,29.84,1.2,NE,3.5,-,0.01,Snow,Light Snow,40,2013-12-09 17:53:00
1:22 PM,30.2,28.4,93,29.80,2.0,NE,3.5,-,0.01,Snow,Light Snow,40,2013-12-09 18:22:00
1:28 PM,30.2,28.4,93,29.80,3.0,Calm,Calm,-,0.01,Snow,Light Snow,0,2013-12-09 18:28:00
1:53 PM,30.9,28.9,92,29.81,9.0,Calm,Calm,-,0.01,,Overcast,0,2013-12-09 18:53:00
2:53 PM,36.0,30.9,82,29.78,10.0,SSW,10.4,-,0.00,,Overcast,210,2013-12-09 19:53:00
3:53 PM,37.9,33.1,83,29.79,7.0,SW,16.1,24.2,0.00,Rain,Light Rain,220,2013-12-09 20:53:00
4:26 PM,37.4,33.8,87,29.78,10.0,WSW,11.5,-,0.00,Rain,Light Rain,240,2013-12-09 21:26:00
4:49 PM,37.4,32.0,81,29.78,10.0,SW,20.7,28.8,0.00,,Overcast,220,2013-12-09 21:49:00
4:53 PM,37.0,32.0,82,29.80,10.0,SW,20.7,31.1,0.00,,Overcast,230,2013-12-09 21:53:00
5:09 PM,37.4,30.2,75,29.78,10.0,SW,15.0,26.5,N/A,,Overcast,220,2013-12-09 22:09:00
5:53 PM,37.0,28.9,73,29.83,10.0,WSW,19.6,25.3,N/A,,Overcast,240,2013-12-09 22:53:00
6:37 PM,35.6,26.6,70,29.82,10.0,WSW,21.9,35.7,N/A,,Overcast,240,2013-12-09 23:37:00
6:53 PM,36.0,27.0,70,29.85,10.0,WSW,19.6,32.2,N/A,,Overcast,240,2013-12-09 23:53:00
7:50 PM,35.6,24.8,65,29.86,10.0,WSW,16.1,27.6,N/A,,Overcast,240,2013-12-10 00:50:00
7:53 PM,35.1,25.0,67,29.88,10.0,WSW,18.4,27.6,N/A,,Overcast,240,2013-12-10 00:53:00
8:53 PM,35.1,23.0,61,29.88,10.0,SW,16.1,27.6,N/A,,Overcast,230,2013-12-10 01:53:00
9:53 PM,35.1,21.9,59,29.86,10.0,WSW,18.4,33.4,N/A,,Overcast,240,2013-12-10 02:53:00
10:53 PM,34.0,23.0,64,29.86,10.0,SW,19.6,28.8,N/A,,Overcast,230,2013-12-10 03:53:00
11:53 PM,34.0,21.0,59,29.87,10.0,WSW,12.7,26.5,N/A,,Overcast,240,2013-12-10 04:53:00